SCP
0 0 0 0 0 0 0 0 0 0 0 -0 -0 -0 -0 0 0 0 0 -0 0 -0 0 -0 0 0 0 -0 0 -0 0 0 0 0 0 0 0 0 0 0 0 0 0
0 0 0 0 0 0 0 0 0 0 0 -0 -0 -0 -0 -0 0 0 0 0 0 0 -0 -0 0 0 -0 0 -0 0 0 0 0 0 0 0 0 0 0 0 0 0 0
0 0 0 0 0 0 0 0 -0 -0 -0 -0 -0 -0 -0 -0 0 0 0 0 0 0 -0 -0 0 0 0 0 0 0 0 0 0 0 0 0 0 0 0 0 0 0 0
0 0 0 0 0 0 0 -0 -0 0 0 -0 -0 -0 -0 -0 0 0 0 0 0 0 0 -0 -0 0 0 -0 -0 -0 0 0 0 0 0 0 0 0 0 0 0 0 0
0 -0 -0 0 0 0 0 -0 0 0 -0 -0 -0 -0 -0 -0 0 0 -0 -0 0 0 0 0 0 -0 0 0 0 -0 0 0 0 0 0 0 0 0 0 0 0 0 0
-0 -0 -0 -0 -0 0 0 0 0 -0 -0 -0 0 0 -0 -0 0 -0 -0 0 0 0 0 0 0 0 0 0 0 0 0 0 0 0 0 0 0 0 0 0 0 -0 0
-0 -0 -0 -0 -0 0 0 -0 0 0 -0 0 -0 -0 0 0 0 0 -0 -0 0 0 0 0 0 0 0 0 0 0 0 0 0 0 0 0 0 0 0 0 0 0 0
-0 -0 -0 -0 -0 -0 -0 -0 -0 0 -0 -0 -0 -0 0 0 0 0 -0 0 0 0 0 0 0 0 0 0 0 0 0 0 0 0 0 0 0 0 0 0 -0 -0 0
-0 -0 -0 -0 -0 -0 -0 -0 -0 0 0 -0 -0 0 0 0 0 -0 0 0 0 0 0 0 -0 0 0 0 0 0 0 0 0 0 0 0 0 0 0 -0 -0 -0 -0
-0 -0 -0 -0 0 0 0 -0 -0 0 0 -0 -0 0 0 0 0 0 0 0 0 0 0 0 0 0 -0 0 0 0 -0 -0 0 0 0 0 0 0 -0 0 0 0 -0
-0 -0 -0 -0 -0 0 0 0 0 0 -0 -0 -0 0 0 0 0 0 0 0 0 0 0 0 -0 0 0 0 0 -0 -0 -0 0 0 0 -0 0 0 -0 0 -0 0 -0
-0 -0 -0 -0 -0 0 0 0 0 0 0 0 0 0 0 0 0 0 0 0 -0 -0 0 0 -0 -0 0 0 0 -0 0 0 0 -0 -0 -0 -0 0 0 0 -0 0 0
-0 -0 -0 -0 -0 -0 0 0 0 0 0 0 0 -0 -0 0 0 0 0 -0 -0 0 -0 -0 -0 -0 -0 -0 -0 0 0 0 -0 -0 -0 -0 -0 -0 -0 -0 -0 -0 -0
-0 -0 -0 -0 -0 -0 0 0 0 0 0 0 0 0 -0 -0 -0 0 0 0 0 -0 -0 -0 0 0 0 -0 -0 -0 0 0 0 -0 -0 -0 -0 -0 -0 -0 -0 -0 -0
-0 -0 -0 -0 -0 0 0 0 0 0 0 0 0 0 0 0 0 0 0 0 0 0 0 0 0 0 0 0 0 0 -0 -0 -0 -0 -0 -0 -0 -0 -0 0 0 0 0
-0 -0 -0 -0 0 0 0 0 0 0 0 0 0 0 0 0 0 0 0 0 0 0 0 0 0 -0 -0 -0 -0 -0 -0 -0 -0 -0 -0 -0 0 0 0 -0 0 0 0
-0 -0 -0 -0 -0 0 0 0 0 0 0 0 0 0 0 0 0 0 0 0 0 -0 0 -0 -0 0 -0 -0 -0 -0 -0 -0 -0 -0 -0 0 -0 -0 -0 -0 -0 0 0
-0 -0 -0 -0 -0 0 0 0 0 0 0 0 0 0 -0 -0 -0 -0 -0 0 -0 -0 -0 -0 -0 0 -0 -0 -0 -0 -0 -0 0 0 -0 -0 -0 -0 -0 -0 -0 -0 0
-0 -0 0 0 -0 0 0 0 0 0 0 0 0 0 0 0 -0 -0 -0 0 0 -0 -0 -0 -0 0 0 -0 -0 -0 0 0 -0 -0 -0 -0 -0 -0 -0 -0 -0 0 0
-0 -0 0 0 0 0 0 0 0 0 0 0 -0 -0 -0 -0 -0 -0 0 -0 -0 -0 0 0 -0 -0 0 -0 -0 -0 -0 -0 -0 -0 -0 -0 -0 -0 -0 0 0 0 0
0 0 0 0 0 0 0 0 0 -0 0 0 0 -0 -0 -0 -0 -0 -0 -0 -0 -0 -0 0 -0 -0 -0 -0 -0 -0 -0 -0 0 0 0 0 0 0 0 0 0 0 0
0 0 0 0 0 0 0 0 0 0 0 0 0 0 -0 -0 -0 -0 -0 -0 -0 -0 -0 -0 -0 -0 -0 0 0 0 0 0 0 0 0 0 0 0 0 0 0 0 0
0 0 0 0 0 0 0 0 0 0 0 0 0 0 0 0 0 -0 -0 -0 -0 -0 -0 0 0 0 0 0 0 0 0 0 0 0 0 0 0 0 0 0 0 0 0
0 0 0 0 0 0 0 0 0 0 0 0 0 0 0 0 0 0 0 0 0 0 0 -0 0 0 0 0 0 0 0 0 0 0 0 0 0 0 0 0 0 0 0
0 0 0 0 0 0 0 0 0 0 0 0 0 0 0 0 0 0 0 0 0 0 0 0 0 0 0 0 0 0 0 0 0 0 0 0 0 0 0 0 0 0 0
0 0 0 0 0 0 0 0 0 0 0 0 0 0 0 0 0 0 0 0 0 0 0 0 0 0 0 0 0 0 0 0 0 0 0 0 0 0 0 0 0 0 0
Wind_Speed_500mb
27 26 22 18 16 12 6 14 20 16 10 8 8 9 8 5 4 6 7 6 7 9 7 10 14 13 12 13 18 48 40 49 52 42 43 38 44 55 64 58 73 76 78
25 26 22 15 15 12 9 18 22 19 18 13 17 10 8 6 2 7 8 3 0 6 8 5 5 12 15 20 34 43 44 50 46 59 62 54 60 53 76 81 84 78 70
29 25 18 17 13 11 13 21 31 29 21 16 11 8 7 3 3 7 6 2 9 10 10 11 21 21 25 32 36 42 37 48 54 67 66 66 85 87 94 88 82 80 73
31 27 18 13 5 12 20 30 26 19 21 18 16 11 9 6 10 9 10 13 9 8 7 14 19 21 25 36 30 27 32 44 60 70 79 87 89 89 96 87 77 65 62
34 26 16 11 11 11 22 31 25 22 20 18 15 10 10 13 13 11 16 10 4 8 16 19 19 23 26 24 30 35 35 50 63 75 91 94 95 96 89 81 74 64 54
34 21 15 20 17 12 22 34 26 23 22 19 9 6 11 4 13 15 16 13 7 10 14 20 18 14 24 26 28 29 38 65 93 91 91 100 97 93 83 73 67 61 57
31 21 20 19 18 15 22 34 33 27 23 8 8 9 12 11 21 19 19 17 11 12 17 18 21 24 32 35 30 31 65 64 71 82 102 97 87 81 70 64 62 56 59
30 25 26 23 21 17 18 26 32 30 25 21 12 15 21 21 23 19 18 18 16 20 18 21 23 32 31 37 38 66 75 66 69 88 80 81 67 71 61 52 60 60 53
34 28 25 19 25 22 19 17 20 22 24 23 18 22 24 25 23 21 17 19 25 24 20 22 25 30 32 36 48 66 78 70 65 66 58 59 53 49 52 62 56 54 54
41 24 33 26 25 20 17 20 22 22 27 27 24 22 20 21 20 18 20 21 27 26 24 23 24 30 35 37 45 61 75 76 62 66 59 58 61 52 54 45 47 44 47
35 28 38 29 26 19 23 22 20 22 26 31 28 22 23 20 20 21 21 15 18 20 29 29 29 32 34 38 41 63 79 73 56 65 59 63 58 56 45 37 34 27 35
35 41 38 32 29 23 27 28 19 19 29 31 28 26 24 24 22 22 25 16 13 22 38 36 38 33 35 38 47 56 68 62 66 69 65 58 54 56 42 35 31 22 21
39 49 40 34 25 25 28 28 24 22 23 27 27 25 26 27 32 29 32 26 20 32 43 44 40 39 43 39 50 61 64 58 64 69 64 57 50 52 44 44 40 32 24
47 49 48 39 29 25 27 26 24 24 23 25 27 24 22 30 38 40 44 35 31 43 43 43 40 37 41 51 52 52 59 62 60 66 62 51 51 54 46 43 42 39 32
54 51 45 32 32 28 30 29 25 19 17 18 18 21 27 41 45 49 45 40 42 41 41 40 36 39 47 53 52 54 62 66 60 52 49 52 54 51 48 44 40 37 34
61 57 49 39 39 32 37 32 25 21 16 21 12 15 20 29 43 52 44 36 40 44 40 38 39 41 52 56 59 58 55 57 51 47 48 51 53 51 48 45 41 41 44
66 62 55 46 47 39 42 39 31 26 14 32 20 16 18 25 39 52 43 41 43 40 42 41 42 48 54 58 58 58 56 48 42 46 45 44 43 42 41 43 45 45 47
65 62 57 51 55 47 43 43 38 32 32 39 35 25 17 17 32 42 48 44 50 42 44 43 41 44 51 54 52 50 47 42 48 47 46 43 41 42 46 53 54 53 50
67 67 59 54 55 55 45 46 41 47 41 40 38 38 35 32 28 33 46 54 56 53 53 48 42 42 44 44 48 52 47 43 48 50 55 62 50 47 46 50 52 51 50
69 69 63 57 58 54 55 54 51 48 46 51 52 50 47 47 49 52 55 54 56 56 58 55 55 54 56 50 48 46 52 55 55 54 66 53 56 57 58 53 57 61 64
73 71 67 61 62 56 58 60 58 57 55 50 42 53 59 59 58 57 57 62 62 61 59 61 60 61 53 59 58 55 57 57 60 63 63 69 72 71 69 66 62 65 69
76 70 67 67 62 66 64 60 61 62 59 61 55 48 44 54 63 64 64 64 66 65 63 64 68 68 64 61 68 65 66 68 68 70 70 71 72 73 74 73 69 67 70
81 75 72 64 72 62 64 65 65 65 65 60 60 59 57 60 56 55 62 67 67 67 68 68 64 63 69 76 65 61 68 70 67 68 73 72 72 74 71 73 74 72 70
68 81 76 72 68 76 66 68 71 68 69 68 63 67 64 62 62 60 56 53 53 58 66 73 78 76 71 68 68 75 72 70 67 67 69 71 75 77 76 75 73 74 74
20 61 76 73 70 61 77 68 69 73 73 72 73 77 74 70 69 68 66 65 62 60 58 59 69 78 85 85 82 78 75 73 74 75 76 77 77 76 75 76 78 79 77
13 22 22 77 75 72 65 71 77 70 77 78 77 78 79 81 80 77 74 73 72 69 65 61 59 63 66 66 66 77 85 80 75 71 68 73 79 79 76 72 73 78 81
Wind_Direction_500mb
168 162 177 180 201 212 240 175 155 153 162 136 125 127 129 147 190 216 207 207 208 203 203 185 179 201 198 207 202 165 177 192 173 166 170 162 159 159 155 159 157 148 149
167 170 184 187 215 219 244 181 176 149 128 114 92 93 107 147 180 194 176 203 48 137 107 155 179 166 190 173 165 170 178 187 173 148 163 166 160 172 161 142 145 147 149
173 171 185 201 214 235 174 153 160 160 152 145 140 171 206 233 188 182 159 117 120 148 163 120 152 141 163 155 171 175 172 177 165 152 158 161 152 146 149 150 148 142 143
177 175 190 200 190 178 166 156 140 160 155 161 180 223 248 239 166 152 132 122 151 134 146 147 135 147 145 144 138 143 147 156 159 160 153 150 154 153 152 145 139 145 149
177 181 199 187 167 163 173 160 160 160 180 182 208 238 243 133 133 123 122 126 76 107 125 155 160 161 171 181 178 174 174 166 163 148 147 146 145 140 143 148 146 148 151
183 185 183 161 160 162 161 160 157 170 191 195 220 196 138 117 129 136 142 136 151 135 122 129 128 142 162 160 161 177 185 170 154 143 141 145 146 149 154 158 158 156 151
182 182 156 156 159 155 162 176 169 170 183 190 171 165 124 131 117 125 115 112 109 126 136 139 126 125 140 145 150 158 168 167 163 162 154 153 155 159 162 161 162 165 161
173 172 157 170 159 157 160 168 180 191 196 179 175 134 133 127 119 111 116 128 122 112 117 131 128 130 138 144 144 162 154 159 163 160 159 157 155 161 167 165 168 164 156
176 165 167 175 175 170 170 163 161 177 178 172 152 143 135 129 126 123 121 131 139 128 125 133 139 136 150 151 151 163 155 155 157 156 153 161 165 166 168 164 158 163 162
178 171 175 176 166 173 165 162 164 166 172 174 165 163 154 140 136 137 125 133 140 134 128 126 128 134 152 168 163 160 161 158 156 156 152 150 157 156 160 163 164 169 166
183 179 175 174 176 164 160 161 160 170 182 178 183 174 170 155 152 139 128 141 145 147 144 136 132 137 142 160 155 164 162 162 162 155 158 158 159 159 159 169 176 181 177
181 175 167 161 176 161 164 156 140 141 153 173 179 180 164 160 166 157 143 159 144 147 140 135 126 140 144 167 164 168 164 160 162 163 156 157 165 167 165 175 178 180 189
180 174 171 169 172 168 170 160 150 147 143 147 163 177 178 172 172 159 156 153 131 141 132 128 122 132 154 154 162 166 173 165 171 172 169 170 171 172 180 184 190 203 218
183 175 170 175 177 170 159 161 161 159 160 158 163 165 167 168 169 165 162 156 139 136 133 128 123 124 140 144 148 165 174 171 172 174 178 179 175 185 194 196 202 213 224
185 183 186 192 188 180 166 169 169 176 174 166 167 174 165 167 167 164 165 162 157 149 139 140 139 144 153 158 159 164 175 175 180 180 180 182 190 198 203 206 213 223 224
191 191 191 193 191 182 180 187 186 192 203 210 135 111 130 158 165 167 166 164 160 169 167 158 151 153 158 162 164 168 170 176 179 187 194 198 203 207 208 214 226 238 238
197 197 195 197 195 192 187 197 183 174 163 171 160 133 113 148 166 173 173 173 170 167 171 168 168 168 167 164 166 171 175 184 191 193 198 205 210 217 223 232 238 242 240
207 205 203 201 200 201 199 203 206 202 186 176 186 169 165 156 168 171 174 178 178 178 176 172 173 179 183 181 182 185 187 198 202 206 214 223 232 234 238 243 240 239 243
208 205 207 205 204 205 205 206 210 210 209 206 189 183 184 186 182 182 182 183 185 185 183 184 192 194 194 196 201 196 200 208 211 215 226 229 235 234 241 242 242 246 250
209 211 208 205 207 209 208 209 214 216 214 217 212 212 204 195 196 194 198 200 200 198 194 194 200 211 215 221 221 219 217 217 220 225 223 227 233 237 241 249 245 245 248
210 212 211 209 211 212 212 213 213 218 221 223 223 223 223 221 215 214 212 212 215 215 211 206 203 206 214 217 225 229 232 230 229 231 230 232 237 238 243 248 253 253 253
210 213 213 211 213 215 217 216 217 220 226 228 230 229 229 231 231 229 226 224 225 225 223 222 221 218 215 215 221 229 231 232 234 236 239 241 243 245 248 249 251 252 249
215 215 214 215 211 215 220 221 219 219 226 231 234 235 229 229 231 234 237 238 236 234 233 232 229 224 224 223 225 231 237 237 238 239 241 245 247 247 246 247 247 246 247
209 217 219 215 217 212 216 226 224 224 222 226 234 240 238 236 238 239 241 240 239 240 241 239 237 236 235 231 230 233 238 245 246 247 245 246 250 250 252 249 248 248 249
189 217 222 223 218 217 218 222 230 229 227 226 225 234 242 245 245 244 246 247 248 248 248 246 240 239 239 237 236 237 238 242 245 246 246 246 247 248 249 252 253 251 248
240 196 216 225 228 226 228 229 228 233 235 232 230 233 237 242 245 248 250 250 249 250 252 252 251 244 239 238 240 240 239 239 242 245 247 248 248 249 248 252 254 251 250
Wind_Speed_850mb
27 26 22 18 16 12 6 14 20 16 10 8 8 9 8 5 4 6 7 6 7 9 7 10 14 13 12 13 18 48 40 49 52 42 43 38 44 55 64 58 73 76 78
25 26 22 15 15 12 9 18 22 19 18 13 17 10 8 6 2 7 8 3 0 6 8 5 5 12 15 20 34 43 44 50 46 59 62 54 60 53 76 81 84 78 70
29 25 18 17 13 11 13 21 31 29 21 16 11 8 7 3 3 7 6 2 9 10 10 11 21 21 25 32 36 42 37 48 54 67 66 66 85 87 94 88 82 80 73
31 27 18 13 5 12 20 30 26 19 21 18 16 11 9 6 10 9 10 13 9 8 7 14 19 21 25 36 30 27 32 44 60 70 79 87 89 89 96 87 77 65 62
34 26 16 11 11 11 22 31 25 22 20 18 15 10 10 13 13 11 16 10 4 8 16 19 19 23 26 24 30 35 35 50 63 75 91 94 95 96 89 81 74 64 54
34 21 15 20 17 12 22 34 26 23 22 19 9 6 11 4 13 15 16 13 7 10 14 20 18 14 24 26 28 29 38 65 93 91 91 100 97 93 83 73 67 61 57
31 21 20 19 18 15 22 34 33 27 23 8 8 9 12 11 21 19 19 17 11 12 17 18 21 24 32 35 30 31 65 64 71 82 102 97 87 81 70 64 62 56 59
30 25 26 23 21 17 18 26 32 30 25 21 12 15 21 21 23 19 18 18 16 20 18 21 23 32 31 37 38 66 75 66 69 88 80 81 67 71 61 52 60 60 53
34 28 25 19 25 22 19 17 20 22 24 23 18 22 24 25 23 21 17 19 25 24 20 22 25 30 32 36 48 66 78 70 65 66 58 59 53 49 52 62 56 54 54
41 24 33 26 25 20 17 20 22 22 27 27 24 22 20 21 20 18 20 21 27 26 24 23 24 30 35 37 45 61 75 76 62 66 59 58 61 52 54 45 47 44 47
35 28 38 29 26 19 23 22 20 22 26 31 28 22 23 20 20 21 21 15 18 20 29 29 29 32 34 38 41 63 79 73 56 65 59 63 58 56 45 37 34 27 35
35 41 38 32 29 23 27 28 19 19 29 31 28 26 24 24 22 22 25 16 13 22 38 36 38 33 35 38 47 56 68 62 66 69 65 58 54 56 42 35 31 22 21
39 49 40 34 25 25 28 28 24 22 23 27 27 25 26 27 32 29 32 26 20 32 43 44 40 39 43 39 50 61 64 58 64 69 64 57 50 52 44 44 40 32 24
47 49 48 39 29 25 27 26 24 24 23 25 27 24 22 30 38 40 44 35 31 43 43 43 40 37 41 51 52 52 59 62 60 66 62 51 51 54 46 43 42 39 32
54 51 45 32 32 28 30 29 25 19 17 18 18 21 27 41 45 49 45 40 42 41 41 40 36 39 47 53 52 54 62 66 60 52 49 52 54 51 48 44 40 37 34
61 57 49 39 39 32 37 32 25 21 16 21 12 15 20 29 43 52 44 36 40 44 40 38 39 41 52 56 59 58 55 57 51 47 48 51 53 51 48 45 41 41 44
66 62 55 46 47 39 42 39 31 26 14 32 20 16 18 25 39 52 43 41 43 40 42 41 42 48 54 58 58 58 56 48 42 46 45 44 43 42 41 43 45 45 47
65 62 57 51 55 47 43 43 38 32 32 39 35 25 17 17 32 42 48 44 50 42 44 43 41 44 51 54 52 50 47 42 48 47 46 43 41 42 46 53 54 53 50
67 67 59 54 55 55 45 46 41 47 41 40 38 38 35 32 28 33 46 54 56 53 53 48 42 42 44 44 48 52 47 43 48 50 55 62 50 47 46 50 52 51 50
69 69 63 57 58 54 55 54 51 48 46 51 52 50 47 47 49 52 55 54 56 56 58 55 55 54 56 50 48 46 52 55 55 54 66 53 56 57 58 53 57 61 64
73 71 67 61 62 56 58 60 58 57 55 50 42 53 59 59 58 57 57 62 62 61 59 61 60 61 53 59 58 55 57 57 60 63 63 69 72 71 69 66 62 65 69
76 70 67 67 62 66 64 60 61 62 59 61 55 48 44 54 63 64 64 64 66 65 63 64 68 68 64 61 68 65 66 68 68 70 70 71 72 73 74 73 69 67 70
81 75 72 64 72 62 64 65 65 65 65 60 60 59 57 60 56 55 62 67 67 67 68 68 64 63 69 76 65 61 68 70 67 68 73 72 72 74 71 73 74 72 70
68 81 76 72 68 76 66 68 71 68 69 68 63 67 64 62 62 60 56 53 53 58 66 73 78 76 71 68 68 75 72 70 67 67 69 71 75 77 76 75 73 74 74
20 61 76 73 70 61 77 68 69 73 73 72 73 77 74 70 69 68 66 65 62 60 58 59 69 78 85 85 82 78 75 73 74 75 76 77 77 76 75 76 78 79 77
13 22 22 77 75 72 65 71 77 70 77 78 77 78 79 81 80 77 74 73 72 69 65 61 59 63 66 66 66 77 85 80 75 71 68 73 79 79 76 72 73 78 81
Wind_Direction_850mb
168 162 177 180 201 212 240 175 155 153 162 136 125 127 129 147 190 216 207 207 208 203 203 185 179 201 198 207 202 165 177 192 173 166 170 162 159 159 155 159 157 148 149
167 170 184 187 215 219 244 181 176 149 128 114 92 93 107 147 180 194 176 203 48 137 107 155 179 166 190 173 165 170 178 187 173 148 163 166 160 172 161 142 145 147 149
173 171 185 201 214 235 174 153 160 160 152 145 140 171 206 233 188 182 159 117 120 148 163 120 152 141 163 155 171 175 172 177 165 152 158 161 152 146 149 150 148 142 143
177 175 190 200 190 178 166 156 140 160 155 161 180 223 248 239 166 152 132 122 151 134 146 147 135 147 145 144 138 143 147 156 159 160 153 150 154 153 152 145 139 145 149
177 181 199 187 167 163 173 160 160 160 180 182 208 238 243 133 133 123 122 126 76 107 125 155 160 161 171 181 178 174 174 166 163 148 147 146 145 140 143 148 146 148 151
183 185 183 161 160 162 161 160 157 170 191 195 220 196 138 117 129 136 142 136 151 135 122 129 128 142 162 160 161 177 185 170 154 143 141 145 146 149 154 158 158 156 151
182 182 156 156 159 155 162 176 169 170 183 190 171 165 124 131 117 125 115 112 109 126 136 139 126 125 140 145 150 158 168 167 163 162 154 153 155 159 162 161 162 165 161
173 172 157 170 159 157 160 168 180 191 196 179 175 134 133 127 119 111 116 128 122 112 117 131 128 130 138 144 144 162 154 159 163 160 159 157 155 161 167 165 168 164 156
176 165 167 175 175 170 170 163 161 177 178 172 152 143 135 129 126 123 121 131 139 128 125 133 139 136 150 151 151 163 155 155 157 156 153 161 165 166 168 164 158 163 162
178 171 175 176 166 173 165 162 164 166 172 174 165 163 154 140 136 137 125 133 140 134 128 126 128 134 152 168 163 160 161 158 156 156 152 150 157 156 160 163 164 169 166
183 179 175 174 176 164 160 161 160 170 182 178 183 174 170 155 152 139 128 141 145 147 144 136 132 137 142 160 155 164 162 162 162 155 158 158 159 159 159 169 176 181 177
181 175 167 161 176 161 164 156 140 141 153 173 179 180 164 160 166 157 143 159 144 147 140 135 126 140 144 167 164 168 164 160 162 163 156 157 165 167 165 175 178 180 189
180 174 171 169 172 168 170 160 150 147 143 147 163 177 178 172 172 159 156 153 131 141 132 128 122 132 154 154 162 166 173 165 171 172 169 170 171 172 180 184 190 203 218
183 175 170 175 177 170 159 161 161 159 160 158 163 165 167 168 169 165 162 156 139 136 133 128 123 124 140 144 148 165 174 171 172 174 178 179 175 185 194 196 202 213 224
185 183 186 192 188 180 166 169 169 176 174 166 167 174 165 167 167 164 165 162 157 149 139 140 139 144 153 158 159 164 175 175 180 180 180 182 190 198 203 206 213 223 224
191 191 191 193 191 182 180 187 186 192 203 210 135 111 130 158 165 167 166 164 160 169 167 158 151 153 158 162 164 168 170 176 179 187 194 198 203 207 208 214 226 238 238
197 197 195 197 195 192 187 197 183 174 163 171 160 133 113 148 166 173 173 173 170 167 171 168 168 168 167 164 166 171 175 184 191 193 198 205 210 217 223 232 238 242 240
207 205 203 201 200 201 199 203 206 202 186 176 186 169 165 156 168 171 174 178 178 178 176 172 173 179 183 181 182 185 187 198 202 206 214 223 232 234 238 243 240 239 243
208 205 207 205 204 205 205 206 210 210 209 206 189 183 184 186 182 182 182 183 185 185 183 184 192 194 194 196 201 196 200 208 211 215 226 229 235 234 241 242 242 246 250
209 211 208 205 207 209 208 209 214 216 214 217 212 212 204 195 196 194 198 200 200 198 194 194 200 211 215 221 221 219 217 217 220 225 223 227 233 237 241 249 245 245 248
210 212 211 209 211 212 212 213 213 218 221 223 223 223 223 221 215 214 212 212 215 215 211 206 203 206 214 217 225 229 232 230 229 231 230 232 237 238 243 248 253 253 253
210 213 213 211 213 215 217 216 217 220 226 228 230 229 229 231 231 229 226 224 225 225 223 222 221 218 215 215 221 229 231 232 234 236 239 241 243 245 248 249 251 252 249
215 215 214 215 211 215 220 221 219 219 226 231 234 235 229 229 231 234 237 238 236 234 233 232 229 224 224 223 225 231 237 237 238 239 241 245 247 247 246 247 247 246 247
209 217 219 215 217 212 216 226 224 224 222 226 234 240 238 236 238 239 241 240 239 240 241 239 237 236 235 231 230 233 238 245 246 247 245 246 250 250 252 249 248 248 249
189 217 222 223 218 217 218 222 230 229 227 226 225 234 242 245 245 244 246 247 248 248 248 246 240 239 239 237 236 237 238 242 245 246 246 246 247 248 249 252 253 251 248
240 196 216 225 228 226 228 229 228 233 235 232 230 233 237 242 245 248 250 250 249 250 252 252 251 244 239 238 240 240 239 239 242 245 247 248 248 249 248 252 254 251 250